Regional Weather Roundup
Issued by NWS Goodland, KS

Home | Current Version | Previous Version | Graphics & Text | Print | Product List | Glossary Off
Versions: 1 2 3 4 5 6 7 8 9 10 11 12 13 14 15 16 17 18 19 20 21 22 23 24 25 26 27 28 29 30 31 32 33 34 35 36 37 38 39 40 41 42 43 44 45 46 47 48 49 50

000
ASUS43 KGLD 200308
RWRGLD

GOODLAND FORECAST AREA HOURLY WEATHER ROUNDUP
NATIONAL WEATHER SERVICE GOODLAND KS
800 PM MST SUN NOV 19 2017

...OFFICIAL OBSERVATIONS...

CITY           SKY/WX    TMP DP  RH WIND       PRES   REMARKS
GOODLAND KS    CLOUDY    48  16  27 SW14      29.93F
HILL CITY KS   CLOUDY    45  26  47 W6        29.96F
IMPERIAL NEB   CLOUDY    37  21  52 CALM      29.90F
MCCOOK NEB     CLOUDY    43  25  49 SW9       29.90F
AKRON CO       CLOUDY    44  12  27 SW15      29.94S
BURLINGTON CO  CLOUDY    33  15  47 SW12      29.96F
LIMON CO       CLOUDY    22  16  78 N8        30.00S
$$

...UNOFFICIAL OBSERVATIONS...

CITY           SKY/WX    TMP DP  RH WIND       PRES   REMARKS
COLBY KS       CLOUDY    37  27  65 SW6       29.95F
LENORA KS        N/A     45  32  60 S10         N/A
NORTON KS      CLEAR     39  21  48 SW10      29.92
SHARON SPRINGS   N/A     37  18  46 S8          N/A
TRENTON NEB      N/A     38  32  79 SW5         N/A
KIT CARSON CO    N/A     30  14  51 CALM        N/A
YUMA CO        FAIR      34  19  55 SW13      29.92S
$$



USA.gov is the U.S. government's official web portal to all federal, state and local government web resources and services.